Webcam more information Webcam


altri nostri siti meteo:

ViterbometeoSito sul meteo

Pomeziameteo 1Sito sul meteo

Pomeziameteo DashboardSito sul meteo

Caput FrigorisSito sul meteo

BarcellonameteoSito sul meteo

MeteoipassiSito sul meteo

TortoretometeolidoSito sul meteo

CastelnuovovomanometeoSito sul meteo

MeteogonzagaSito sul meteo

MeteonetworkInvio dai a Meteonetwork



Nessuna attenzione particolare richiesta.    Non ci sono allerte meteo

Weather Underground Storia pagina Testo

Quotidiano Riepilogo per aprile 20, 2019 Unita:  Metrico    Inglese   Entrambi
« Indietro Day
Avanti Day »
Quotidiano Settimanale mensile Annuale Personalizzato
  Attuale: Max: Min: Media:
Temperatura: -8.5 °C -17.8 °C -12.1 °C -9.4 °C
P.to Rugiada: -14 °C -17.8 °C -18.9 °C -15.3 °C
Umidita: 52 % Humidity % 21 % 52 %
Vel. Vento: 23.3 km/h 0 km/h 0 km/h 17.2 km/h
Raffiche: 33.6 km/h 0 km/h - -
Vento:WSW - - East
Pressione: 34591.4 hPa 0 hPa 34591.4 hPa -
Precipitazioni: 0 mm      
Historical Graphs
 
 
Dati di tabella per il aprile 20, 2019
Tempo Temperatura P.to Rugiada Pressione Vento Vel. Vento Raffiche Umidita Tasso delle precipitazioni (oraria)
-17.8 °C -17.8 °C 0 hPa Calm     Humidity % 0 mm
00:00 -10.9 °C -15.2 °C 34760.7 hPa East 7.7 km/h 15.6 km/h 59 % 0 mm
00:05 -10.8 °C -15.3 °C 34760.7 hPa ENE 7.7 km/h 12.9 km/h 58 % 0 mm
00:10 -10.8 °C -15.2 °C 34760.7 hPa East 7.7 km/h 10.3 km/h 59 % 0 mm
00:15 -10.9 °C -15.1 °C 34750.5 hPa East 5.1 km/h 15.6 km/h 60 % 0 mm
00:20 -10.9 °C -15.1 °C 34750.5 hPa ENE 7.7 km/h 20.8 km/h 60 % 0 mm
00:25 -10.9 °C -15 °C 34750.5 hPa ESE 7.7 km/h 10.3 km/h 61 % 0 mm
00:30 -11 °C -14.9 °C 34750.5 hPa East 5.1 km/h 15.6 km/h 62 % 0 mm
00:35 -11 °C -14.9 °C 34750.5 hPa East 10.3 km/h 18.2 km/h 62 % 0 mm
00:40 -11 °C -14.8 °C 34750.5 hPa East 7.7 km/h 20.8 km/h 63 % 0 mm
00:45 -11 °C -14.8 °C 34750.5 hPa NE 10.3 km/h 20.8 km/h 63 % 0 mm
00:50 -11 °C -14.8 °C 34750.5 hPa East 20.8 km/h 23.3 km/h 63 % 0 mm
00:55 -11 °C -14.8 °C 34750.5 hPa East 12.9 km/h 23.3 km/h 63 % 0 mm
01:00 -11.1 °C -14.7 °C 34740.4 hPa ENE 10.3 km/h 20.8 km/h 64 % 0 mm
01:05 -11.1 °C -14.8 °C 34740.4 hPa ENE 20.8 km/h 23.3 km/h 64 % 0 mm
01:10 -11.1 °C -14.8 °C 34740.4 hPa ENE 15.6 km/h 25.9 km/h 64 % 0 mm
01:15 -11.1 °C -14.8 °C 34740.4 hPa NE 15.6 km/h 23.3 km/h 64 % 0 mm
01:20 -11.2 °C -14.8 °C 34740.4 hPa East 12.9 km/h 28.5 km/h 64 % 0 mm
01:25 -11.2 °C -14.7 °C 34740.4 hPa East 12.9 km/h 25.9 km/h 65 % 0 mm
01:30 -11.2 °C -14.7 °C 34740.4 hPa ENE 25.9 km/h 31.1 km/h 65 % 0 mm
01:35 -11.2 °C -14.7 °C 34726.8 hPa ENE 25.9 km/h 33.6 km/h 65 % 0 mm
01:40 -11.2 °C -14.7 °C 34740.4 hPa NE 18.2 km/h 33.6 km/h 65 % 0 mm
01:45 -11.2 °C -14.7 °C 34726.8 hPa NE 18.2 km/h 28.5 km/h 65 % 0 mm
01:50 -11.2 °C -14.7 °C 34726.8 hPa ENE 20.8 km/h 31.1 km/h 65 % 0 mm
01:55 -11.2 °C -14.7 °C 34726.8 hPa NE 25.9 km/h 31.1 km/h 65 % 0 mm
02:00 -11.2 °C -14.7 °C 34726.8 hPa NNE 20.8 km/h 28.5 km/h 65 % 0 mm
02:05 -11.2 °C -14.8 °C 34726.8 hPa East 7.7 km/h 31.1 km/h 65 % 0 mm
02:10 -11.2 °C -14.8 °C 34716.7 hPa ENE 18.2 km/h 28.5 km/h 65 % 0 mm
02:15 -11.2 °C -14.8 °C 34716.7 hPa ENE 10.3 km/h 25.9 km/h 65 % 0 mm
02:20 -11.3 °C -14.8 °C 34716.7 hPa NE 15.6 km/h 31.1 km/h 65 % 0 mm
02:25 -11.3 °C -14.7 °C 34716.7 hPa East 20.8 km/h 31.1 km/h 66 % 0 mm
02:30 -11.4 °C -14.8 °C 34716.7 hPa ENE 23.3 km/h 25.9 km/h 66 % 0 mm
02:35 -11.4 °C -14.8 °C 34716.7 hPa East 10.3 km/h 31.1 km/h 66 % 0 mm
02:40 -11.4 °C -14.8 °C 34716.7 hPa NE 7.7 km/h 31.1 km/h 66 % 0 mm
02:45 -11.4 °C -14.8 °C 34703.1 hPa East 20.8 km/h 28.5 km/h 66 % 0 mm
02:50 -11.4 °C -14.8 °C 34703.1 hPa NE 15.6 km/h 31.1 km/h 66 % 0 mm
02:55 -11.4 °C -14.9 °C 34703.1 hPa East 15.6 km/h 28.5 km/h 66 % 0 mm
03:00 -11.5 °C -14.9 °C 34703.1 hPa ENE 23.3 km/h 28.5 km/h 66 % 0 mm
03:05 -11.5 °C -14.8 °C 34703.1 hPa ENE 7.7 km/h 25.9 km/h 67 % 0 mm
03:10 -11.6 °C -14.8 °C 34703.1 hPa ENE 10.3 km/h 20.8 km/h 67 % 0 mm
03:15 -11.6 °C -14.9 °C 34703.1 hPa NE 5.1 km/h 23.3 km/h 67 % 0 mm
03:20 -11.6 °C -14.9 °C 34703.1 hPa NE 12.9 km/h 23.3 km/h 67 % 0 mm
03:25 -11.6 °C -14.9 °C 34703.1 hPa NE 15.6 km/h 28.5 km/h 67 % 0 mm
03:30 -11.6 °C -14.9 °C 34703.1 hPa NE 23.3 km/h 28.5 km/h 67 % 0 mm
03:35 -11.6 °C -14.9 °C 34703.1 hPa ENE 18.2 km/h 25.9 km/h 67 % 0 mm
03:40 -11.7 °C -14.9 °C 34703.1 hPa NNE 12.9 km/h 25.9 km/h 67 % 0 mm
03:45 -11.7 °C -14.9 °C 34693 hPa NNE 7.7 km/h 23.3 km/h 68 % 0 mm
03:50 -11.7 °C -14.9 °C 34693 hPa NE 10.3 km/h 25.9 km/h 68 % 0 mm
03:55 -11.7 °C -14.9 °C 34693 hPa NNE 20.8 km/h 25.9 km/h 68 % 0 mm
04:00 -11.7 °C -14.9 °C 34693 hPa ENE 15.6 km/h 25.9 km/h 68 % 0 mm
04:05 -11.7 °C -14.9 °C 34693 hPa NE 12.9 km/h 31.1 km/h 68 % 0 mm
04:10 -11.7 °C -14.9 °C 34693 hPa East 5.1 km/h 25.9 km/h 68 % 0 mm
04:15 -11.7 °C -14.9 °C 34693 hPa NE 10.3 km/h 28.5 km/h 68 % 0 mm
04:20 -11.7 °C -14.9 °C 34693 hPa NNE 20.8 km/h 33.6 km/h 68 % 0 mm
04:25 -11.7 °C -14.9 °C 34693 hPa NE 28.5 km/h 36.2 km/h 67 % 0 mm
04:30 -11.7 °C -15 °C 34693 hPa ENE 20.8 km/h 36.2 km/h 67 % 0 mm
04:35 -11.7 °C -14.9 °C 34693 hPa NNE 20.8 km/h 31.1 km/h 68 % 0 mm
04:40 -11.8 °C -14.9 °C 34693 hPa ENE 18.2 km/h 23.3 km/h 68 % 0 mm
04:45 -11.8 °C -14.9 °C 34693 hPa ENE 10.3 km/h 23.3 km/h 68 % 0 mm
04:50 -11.8 °C -14.9 °C 34693 hPa East 5.1 km/h 15.6 km/h 68 % 0 mm
04:55 -11.8 °C -14.9 °C 34693 hPa ENE 12.9 km/h 25.9 km/h 68 % 0 mm
05:00 -11.8 °C -15 °C 34693 hPa ENE 7.7 km/h 20.8 km/h 68 % 0 mm
05:05 -11.8 °C -14.9 °C 34693 hPa ENE 7.7 km/h 28.5 km/h 68 % 0 mm
05:10 -11.8 °C -14.9 °C 34693 hPa ENE 18.2 km/h 23.3 km/h 68 % 0 mm
05:15 -11.8 °C -14.9 °C 34693 hPa NE 23.3 km/h 28.5 km/h 68 % 0 mm
05:20 -11.8 °C -14.9 °C 34693 hPa ENE 5.1 km/h 25.9 km/h 68 % 0 mm
05:25 -11.8 °C -14.9 °C 34693 hPa NE 10.3 km/h 23.3 km/h 68 % 0 mm
05:30 -11.8 °C -14.9 °C 34703.1 hPa ENE 12.9 km/h 25.9 km/h 68 % 0 mm
05:35 -11.8 °C -14.9 °C 34703.1 hPa NE 12.9 km/h 28.5 km/h 68 % 0 mm
05:40 -11.8 °C -14.9 °C 34703.1 hPa ENE 20.8 km/h 28.5 km/h 68 % 0 mm
05:45 -11.8 °C -15 °C 34693 hPa ENE 25.9 km/h 28.5 km/h 68 % 0 mm
05:50 -11.9 °C -15.1 °C 34693 hPa NE 23.3 km/h 33.6 km/h 68 % 0 mm
05:55 -11.9 °C -15.1 °C 34693 hPa ENE 20.8 km/h 33.6 km/h 68 % 0 mm
06:00 -11.9 °C -15.1 °C 34693 hPa NE 23.3 km/h 31.1 km/h 68 % 0 mm
06:05 -12 °C -15 °C 34703.1 hPa ENE 25.9 km/h 31.1 km/h 69 % 0 mm
06:10 -12 °C -15.1 °C 34703.1 hPa ENE 20.8 km/h 31.1 km/h 69 % 0 mm
06:15 -12.1 °C -15.1 °C 34703.1 hPa ENE 20.8 km/h 33.6 km/h 69 % 0 mm
06:20 -12.1 °C -15.1 °C 34693 hPa NE 36.2 km/h 36.2 km/h 69 % 0 mm
06:25 -12.1 °C -15.2 °C 34703.1 hPa NE 25.9 km/h 33.6 km/h 68 % 0 mm
06:30 -12.1 °C -15.2 °C 34693 hPa NE 25.9 km/h 36.2 km/h 68 % 0 mm
06:35 -12.1 °C -15.2 °C 34693 hPa ENE 20.8 km/h 33.6 km/h 68 % 0 mm
06:40 -12.1 °C -15.2 °C 34693 hPa East 7.7 km/h 36.2 km/h 68 % 0 mm
06:45 -12.1 °C -15.1 °C 34693 hPa ENE 25.9 km/h 36.2 km/h 69 % 0 mm
06:50 -12.1 °C -15.1 °C 34693 hPa ENE 20.8 km/h 33.6 km/h 69 % 0 mm
06:55 -12.1 °C -15.2 °C 34693 hPa NE 23.3 km/h 36.2 km/h 68 % 0 mm
07:00 -12.1 °C -15.2 °C 34693 hPa ENE 20.8 km/h 36.2 km/h 68 % 0 mm
07:05 -12.1 °C -15.2 °C 34703.1 hPa NE 15.6 km/h 33.6 km/h 68 % 0 mm
07:10 -12 °C -15.1 °C 34703.1 hPa ENE 28.5 km/h 33.6 km/h 68 % 0 mm
07:15 -11.9 °C -15.1 °C 34703.1 hPa NE 25.9 km/h 31.1 km/h 68 % 0 mm
07:20 -11.9 °C -15.2 °C 34703.1 hPa NNE 23.3 km/h 33.6 km/h 67 % 0 mm
07:25 -11.8 °C -15.1 °C 34703.1 hPa ENE 15.6 km/h 36.2 km/h 67 % 0 mm
07:30 -11.8 °C -15.1 °C 34703.1 hPa NE 28.5 km/h 36.2 km/h 67 % 0 mm
07:35 -11.8 °C -15.2 °C 34703.1 hPa NE 18.2 km/h 33.6 km/h 66 % 0 mm
07:40 -11.7 °C -15.1 °C 34703.1 hPa NE 28.5 km/h 31.1 km/h 66 % 0 mm
07:45 -11.7 °C -15.1 °C 34703.1 hPa NE 18.2 km/h 33.6 km/h 66 % 0 mm
07:50 -11.7 °C -15.1 °C 34703.1 hPa ENE 25.9 km/h 38.8 km/h 66 % 0 mm
07:55 -11.6 °C -15.1 °C 34716.7 hPa NNE 20.8 km/h 38.8 km/h 66 % 0 mm
08:00 -11.6 °C -15 °C 34716.7 hPa NNE 25.9 km/h 33.6 km/h 66 % 0 mm
08:05 -11.6 °C -14.9 °C 34716.7 hPa NE 23.3 km/h 33.6 km/h 66 % 0 mm
08:10 -11.5 °C -14.9 °C 34716.7 hPa ENE 15.6 km/h 38.8 km/h 66 % 0 mm
08:15 -11.4 °C -14.9 °C 34716.7 hPa ENE 15.6 km/h 33.6 km/h 66 % 0 mm
08:20 -11.3 °C -14.9 °C 34716.7 hPa NNE 28.5 km/h 33.6 km/h 65 % 0 mm
08:25 -11.3 °C -14.8 °C 34716.7 hPa NE 23.3 km/h 33.6 km/h 65 % 0 mm
08:30 -11.2 °C -14.8 °C 34716.7 hPa NE 15.6 km/h 31.1 km/h 65 % 0 mm
08:35 -11.2 °C -14.8 °C 34716.7 hPa NNE 18.2 km/h 33.6 km/h 65 % 0 mm
08:40 -11.1 °C -14.8 °C 34726.8 hPa NE 15.6 km/h 28.5 km/h 64 % 0 mm
08:45 -11 °C -14.8 °C 34726.8 hPa NE 15.6 km/h 28.5 km/h 63 % 0 mm
08:50 -10.9 °C -14.9 °C 34726.8 hPa NNE 15.6 km/h 38.8 km/h 62 % 0 mm
08:55 -10.9 °C -14.8 °C 34726.8 hPa NE 15.6 km/h 33.6 km/h 62 % 0 mm
09:00 -10.7 °C -14.7 °C 34726.8 hPa NE 25.9 km/h 28.5 km/h 62 % 0 mm
09:05 -10.7 °C -14.8 °C 34726.8 hPa NE 28.5 km/h 38.8 km/h 61 % 0 mm
09:10 -10.7 °C -14.9 °C 34726.8 hPa NE 15.6 km/h 38.8 km/h 60 % 0 mm
09:15 -10.6 °C -14.8 °C 34726.8 hPa NNE 31.1 km/h 38.8 km/h 60 % 0 mm
09:20 -10.5 °C -14.8 °C 34726.8 hPa NE 18.2 km/h 33.6 km/h 60 % 0 mm
09:25 -10.4 °C -14.6 °C 34726.8 hPa North 5.1 km/h 31.1 km/h 60 % 0 mm
09:30 -10.3 °C -14.6 °C 34726.8 hPa NNE 28.5 km/h 31.1 km/h 60 % 0 mm
09:35 -10.3 °C -14.7 °C 34726.8 hPa NE 25.9 km/h 36.2 km/h 59 % 0 mm
09:40 -10.2 °C -14.7 °C 34726.8 hPa ENE 23.3 km/h 38.8 km/h 58 % 0 mm
09:45 -10.1 °C -14.5 °C 34726.8 hPa North 23.3 km/h 33.6 km/h 59 % 0 mm
09:50 -10.1 °C -14.4 °C 34726.8 hPa NE 25.9 km/h 33.6 km/h 59 % 0 mm
09:55 -9.8 °C -14.6 °C 34726.8 hPa NE 36.2 km/h 36.2 km/h 57 % 0 mm
10:00 -9.8 °C -14.6 °C 34726.8 hPa NE 12.9 km/h 38.8 km/h 56 % 0 mm
10:05 -9.7 °C -14.5 °C 34726.8 hPa NNE 12.9 km/h 31.1 km/h 56 % 0 mm
10:10 -9.6 °C -14.4 °C 34726.8 hPa North 25.9 km/h 31.1 km/h 56 % 0 mm
10:15 -9.5 °C -14.3 °C 34726.8 hPa NNE 12.9 km/h 31.1 km/h 56 % 0 mm
10:20 -9.5 °C -14.5 °C 34726.8 hPa NNE 28.5 km/h 36.2 km/h 55 % 0 mm
10:25 -9.3 °C -14.5 °C 34726.8 hPa NE 18.2 km/h 33.6 km/h 54 % 0 mm
10:30 -9.2 °C -14.3 °C 34726.8 hPa NE 28.5 km/h 33.6 km/h 54 % 0 mm
10:35 -9 °C -14.3 °C 34726.8 hPa NNE 15.6 km/h 31.1 km/h 53 % 0 mm
10:40 -8.8 °C -14.5 °C 34726.8 hPa NE 5.1 km/h 28.5 km/h 51 % 0 mm
10:45 -8.7 °C -14.6 °C 34726.8 hPa NE 5.1 km/h 25.9 km/h 49 % 0 mm
10:50 -8.4 °C -15.1 °C 34716.7 hPa ENE 20.8 km/h 31.1 km/h 45 % 0 mm
10:55 -8.2 °C -15.1 °C 34716.7 hPa NNE 7.7 km/h 31.1 km/h 44 % 0 mm
11:00 -8.2 °C -15.2 °C 34716.7 hPa NNE 31.1 km/h 31.1 km/h 43 % 0 mm
11:05 -8.2 °C -15.2 °C 34716.7 hPa NNE 20.8 km/h 36.2 km/h 43 % 0 mm
11:10 -7.9 °C -16.6 °C 34716.7 hPa ENE 25.9 km/h 36.2 km/h 35 % 0 mm
11:15 -7.7 °C -16.7 °C 34716.7 hPa East 10.3 km/h 25.9 km/h 34 % 0 mm
11:20 -7.6 °C -17 °C 34716.7 hPa ENE 10.3 km/h 23.3 km/h 32 % 0 mm
11:25 -7.4 °C -16.9 °C 34716.7 hPa SSE 10.3 km/h 25.9 km/h 32 % 0 mm
11:30 -7.3 °C -17.6 °C 34716.7 hPa SSE 23.3 km/h 31.1 km/h 29 % 0 mm
11:35 -7.4 °C -17.4 °C 34703.1 hPa ESE 23.3 km/h 25.9 km/h 30 % 0 mm
11:40 -7.4 °C -17.3 °C 34703.1 hPa NE 25.9 km/h 28.5 km/h 30 % 0 mm
11:45 -7.3 °C -17.6 °C 34703.1 hPa ENE 25.9 km/h 28.5 km/h 29 % 0 mm
11:50 -7.2 °C -17.2 °C 34703.1 hPa SSE 7.7 km/h 28.5 km/h 30 % 0 mm
11:55 -7.1 °C -17.3 °C 34703.1 hPa NE 12.9 km/h 23.3 km/h 29 % 0 mm
12:00 -7.3 °C -17.3 °C 34703.1 hPa East 23.3 km/h 23.3 km/h 30 % 0 mm
12:05 -7.3 °C -17.3 °C 34693 hPa ESE 15.6 km/h 38.8 km/h 30 % 0 mm
12:10 -7.2 °C -16.9 °C 34703.1 hPa SE 2.6 km/h 28.5 km/h 31 % 0 mm
12:15 -7.2 °C -17.4 °C 34693 hPa South 15.6 km/h 31.1 km/h 29 % 0 mm
12:20 -7.3 °C -17.1 °C 34693 hPa NNE 7.7 km/h 10.3 km/h 31 % 0 mm
12:25 -7.1 °C -17.4 °C 34693 hPa SSE 15.6 km/h 31.1 km/h 29 % 0 mm
12:30 -7.1 °C -17.1 °C 34693 hPa NNW 10.3 km/h 15.6 km/h 30 % 0 mm
12:35 -7.2 °C -16.4 °C 34693 hPa WNW 2.6 km/h 25.9 km/h 33 % 0 mm
12:40 -6.9 °C -16.2 °C 34693 hPa East 2.6 km/h 28.5 km/h 33 % 0 mm
12:45 -6.8 °C -16.4 °C 34682.8 hPa East 20.8 km/h 25.9 km/h 32 % 0 mm
12:50 -6.7 °C -17.1 °C 34682.8 hPa NNE 12.9 km/h 31.1 km/h 29 % 0 mm
12:55 -6.9 °C -16.9 °C 34682.8 hPa North 31.1 km/h 38.8 km/h 30 % 0 mm
13:00 -6.8 °C -17.4 °C 34682.8 hPa East 23.3 km/h 36.2 km/h 28 % 0 mm
13:05 -6.7 °C -17.1 °C 34682.8 hPa NNE 12.9 km/h 31.1 km/h 29 % 0 mm
13:10 -6.7 °C -17.1 °C 34669.3 hPa East 20.8 km/h 38.8 km/h 29 % 0 mm
13:15 -6.4 °C -17.4 °C 34682.8 hPa ENE 20.8 km/h 25.9 km/h 27 % 0 mm
13:20 -6.4 °C -16.8 °C 34669.3 hPa NE 7.7 km/h 28.5 km/h 29 % 0 mm
13:25 -6.6 °C -17.2 °C 34669.3 hPa ESE 28.5 km/h 33.6 km/h 28 % 0 mm
13:30 -6.7 °C -18.4 °C 34669.3 hPa ESE 12.9 km/h 31.1 km/h 24 % 0 mm
13:35 -6.6 °C -18.4 °C 34669.3 hPa ESE 18.2 km/h 31.1 km/h 24 % 0 mm
13:40 -6.4 °C -18.2 °C 34669.3 hPa SSE 12.9 km/h 31.1 km/h 24 % 0 mm
13:45 -6.2 °C -18.1 °C 34669.3 hPa SE 20.8 km/h 25.9 km/h 24 % 0 mm
13:50 -6.3 °C -18.2 °C 34659.1 hPa ESE 28.5 km/h 28.5 km/h 24 % 0 mm
13:55 -6.3 °C -18.2 °C 34669.3 hPa South 20.8 km/h 25.9 km/h 24 % 0 mm
14:00 -6.2 °C -18.4 °C 34669.3 hPa SSE 12.9 km/h 33.6 km/h 23 % 0 mm
14:05 -6.2 °C -18.3 °C 34659.1 hPa SE 5.1 km/h 23.3 km/h 23 % 0 mm
14:10 -6 °C -18.9 °C 34659.1 hPa SSW 7.7 km/h 20.8 km/h 21 % 0 mm
14:15 -5.9 °C -18.4 °C 34659.1 hPa SSE 15.6 km/h 20.8 km/h 22 % 0 mm
14:20 -5.9 °C -18.8 °C 34659.1 hPa ESE 5.1 km/h 33.6 km/h 21 % 0 mm
14:25 -5.9 °C -17.8 °C 34659.1 hPa ESE 10.3 km/h 25.9 km/h 24 % 0 mm
14:30 -6 °C -17.3 °C 34645.6 hPa ESE 7.7 km/h 28.5 km/h 26 % 0 mm
14:35 -5.8 °C -17.1 °C 34645.6 hPa ESE 23.3 km/h 23.3 km/h 26 % 0 mm
14:40 -5.5 °C -16.9 °C 34645.6 hPa ESE 10.3 km/h 25.9 km/h 26 % 0 mm
14:45 -5.8 °C -16.8 °C 34645.6 hPa ESE 23.3 km/h 33.6 km/h 27 % 0 mm
14:50 -5.9 °C -16.9 °C 34645.6 hPa East 12.9 km/h 25.9 km/h 27 % 0 mm
14:55 -5.9 °C -16.6 °C 34645.6 hPa NNE 7.7 km/h 20.8 km/h 28 % 0 mm
15:00 -5.6 °C -16.6 °C 34635.4 hPa ESE 5.1 km/h 25.9 km/h 27 % 0 mm
15:05 -5.4 °C -16.2 °C 34635.4 hPa ESE 18.2 km/h 28.5 km/h 28 % 0 mm
15:10 -5.7 °C -16.4 °C 34635.4 hPa SE 10.3 km/h 31.1 km/h 28 % 0 mm
15:15 -5.7 °C -16.4 °C 34635.4 hPa Calm   33.6 km/h 28 % 0 mm
15:20 -5.9 °C -16.6 °C 34625.2 hPa ESE 5.1 km/h 23.3 km/h 28 % 0 mm
15:25 -5.7 °C -16.4 °C 34625.2 hPa SE 20.8 km/h 31.1 km/h 28 % 0 mm
15:30 -5.5 °C -16.3 °C 34625.2 hPa East 10.3 km/h 25.9 km/h 28 % 0 mm
15:35 -5.9 °C -15.8 °C 34625.2 hPa SSE 25.9 km/h 25.9 km/h 31 % 0 mm
15:40 -5.8 °C -14.8 °C 34625.2 hPa SW 5.1 km/h 20.8 km/h 35 % 0 mm
15:45 -5.7 °C -14.4 °C 34611.7 hPa West 33.6 km/h 38.8 km/h 36 % 0 mm
15:50 -5.9 °C -13.8 °C 34611.7 hPa West 7.7 km/h 31.1 km/h 40 % 0 mm
15:55 -6.2 °C -13.9 °C 34611.7 hPa WSW 23.3 km/h 33.6 km/h 41 % 0 mm
16:00 -6.3 °C -14.1 °C 34611.7 hPa WSW 15.6 km/h 28.5 km/h 40 % 0 mm
16:05 -6.1 °C -13.8 °C 34611.7 hPa South 7.7 km/h 28.5 km/h 41 % 0 mm
16:10 -6.3 °C -13.5 °C 34611.7 hPa SW 18.2 km/h 36.2 km/h 43 % 0 mm
16:15 -6.1 °C -13.8 °C 34611.7 hPa SW 31.1 km/h 36.2 km/h 41 % 0 mm
16:20 -6.4 °C -14 °C 34611.7 hPa SW 18.2 km/h 33.6 km/h 41 % 0 mm
16:25 -6.4 °C -14 °C 34601.5 hPa SW 28.5 km/h 36.2 km/h 41 % 0 mm
16:30 -6.5 °C -13.9 °C 34601.5 hPa West 18.2 km/h 38.8 km/h 42 % 0 mm
16:35 -6.3 °C -13.6 °C 34601.5 hPa SW 10.3 km/h 28.5 km/h 43 % 0 mm
16:40 -6.6 °C -13.8 °C 34601.5 hPa SW 18.2 km/h 36.2 km/h 43 % 0 mm
16:45 -6.8 °C -13.8 °C 34601.5 hPa WSW 23.3 km/h 31.1 km/h 44 % 0 mm
16:50 -6.7 °C -13.7 °C 34591.4 hPa SSW 10.3 km/h 38.8 km/h 44 % 0 mm
16:55 -6.9 °C -13.5 °C 34601.5 hPa SW 18.2 km/h 33.6 km/h 46 % 0 mm
17:00 -7.1 °C -13.3 °C 34601.5 hPa SW 12.9 km/h 38.8 km/h 48 % 0 mm
17:05 -7.2 °C -13.5 °C 34601.5 hPa SW 31.1 km/h 36.2 km/h 48 % 0 mm
17:10 -7.3 °C -13.4 °C 34601.5 hPa SW 38.8 km/h 38.8 km/h 49 % 0 mm
17:15 -7.5 °C -13.6 °C 34601.5 hPa WSW 31.1 km/h 46.7 km/h 49 % 0 mm
17:20 -7.6 °C -13.5 °C 34601.5 hPa SW 15.6 km/h 41.4 km/h 50 % 0 mm
17:25 -7.7 °C -13.6 °C 34601.5 hPa SSW 18.2 km/h 41.4 km/h 50 % 0 mm
17:30 -7.7 °C -13.6 °C 34601.5 hPa SSW 18.2 km/h 36.2 km/h 50 % 0 mm
17:35 -7.8 °C -13.7 °C 34601.5 hPa SW 20.8 km/h 38.8 km/h 50 % 0 mm
17:40 -7.8 °C -13.8 °C 34601.5 hPa SW 33.6 km/h 36.2 km/h 49 % 0 mm
17:45 -8 °C -13.8 °C 34601.5 hPa SW 20.8 km/h 36.2 km/h 50 % 0 mm
17:50 -8 °C -14.1 °C 34601.5 hPa SW 10.3 km/h 36.2 km/h 49 % 0 mm
17:55 -8 °C -14.2 °C 34601.5 hPa SSW 20.8 km/h 31.1 km/h 48 % 0 mm
18:00 -8.1 °C -14.1 °C 34601.5 hPa SSW 18.2 km/h 33.6 km/h 49 % 0 mm
18:05 -8.1 °C -14.1 °C 34601.5 hPa SW 18.2 km/h 33.6 km/h 49 % 0 mm
18:10 -8.2 °C -13.9 °C 34601.5 hPa West 31.1 km/h 36.2 km/h 51 % 0 mm
18:15 -8.3 °C -14 °C 34601.5 hPa SW 23.3 km/h 36.2 km/h 51 % 0 mm
18:20 -8.2 °C -13.8 °C 34591.4 hPa South 12.9 km/h 36.2 km/h 52 % 0 mm
18:25 -8.2 °C -13.9 °C 34591.4 hPa SSW 7.7 km/h 31.1 km/h 51 % 0 mm
18:30 -8.3 °C -13.8 °C 34591.4 hPa SW 15.6 km/h 36.2 km/h 52 % 0 mm
18:35 -8.4 °C -14.1 °C 34591.4 hPa SSW 2.6 km/h 33.6 km/h 51 % 0 mm
18:40 -8.5 °C -14 °C 34591.4 hPa WSW 23.3 km/h 33.6 km/h 52 % 0 mm
Stazione meteorologica di Viterbo
complimenti di Weather Underground - 3.5 mb

Script sviluppato da  Jim McMurry - jmcmurry@mwt.net Adattato per il modello da  Wim van der Kuil - Leuven-Template.eu

Potete trovare le nostre info meteo anche a:

Weather Underground

AWEKAS

HAMweather, WeatherForYou, PWS Weather

Strumentazione usata:

Stazione meteo
Davis VP2

Programma gestore dati meteo
WVIEW

Server per i dati meteo
WDS-5

Davis VP2

WVIEW

WDS-5